Meteo Giornale » Osservazioni meteo Italia » Venezia-Tessera

ore: 19:50 - Osservazioni Meteo Venezia-Tessera
Lat. 45° 30' N Lon. 12° 20' E Alt. 2 metri s.l.m.

coperto_pioggia Europe/Rome

14 °C

Pioggia

Temp. 24 Ore

12 °C

19 °C

Est

20.3 Km/h

Dew point 13 °C

Umidità 93 %

Visibilità  8 Km

Il sole sorge alle ore 05:40

Il sole tramonta alle ore 20:33

Data e Ora Cielo e Fenomeni T °C DP °C Um. % Pres. hPa Vis. km Vento km/h
Oggi h: 19:50 coperto_pioggia Pioggia 14 13 93 1005 8 E 20.3
Oggi h: 19:20 coperto_pioggia Pioggia 14 13 93 1005 7 E/NE 24
Oggi h: 18:50 coperto_pioggia Pioggia 13 12 93 1005 9 E/NE 18.5
Oggi h: 18:20 nuvoloso_piovaschi Rovescio di Pioggia Temporale nelle Vicinanze 14 12 87 1005 8 N 13
Oggi h: 17:20 molto_nuvoloso Molto Nuvoloso 18 13 72 1004 10 E 14.8
Oggi h: 16:50 poco_nuvoloso Poco Nuvoloso 19 14 72 1004 10 SE 16.7
Oggi h: 16:20 sereno Sereno 18 13 72 1004 10 SE 16.7
Oggi h: 15:50 sereno Sereno 19 14 72 1003 10 S/SE 14.8
Oggi h: 15:20 sereno Sereno 18 14 77 1004 10 S/SE 13
Oggi h: 14:50 sereno Sereno 18 14 77 1004 10 S/SE 13
Oggi h: 14:20 poco_nuvoloso Poco Nuvoloso 18 13 72 1004 10 S/SE 13
Oggi h: 13:50 poco_nuvoloso Poco Nuvoloso 18 13 72 1004 10 S/SE 11.1
Oggi h: 13:20 poco_nuvoloso Poco Nuvoloso 18 13 72 1004 10 S/SE 11.1
Oggi h: 12:50 poco_nuvoloso Poco Nuvoloso 17 13 77 1004 10 S 9.3
Oggi h: 12:20 poco_nuvoloso Poco Nuvoloso 17 12 72 1005 10 S/SE 7.4
Oggi h: 11:50 poco_nuvoloso Poco Nuvoloso 17 13 77 1005 10 S 9.3
Oggi h: 11:20 poco_nuvoloso Poco Nuvoloso 17 12 72 1004 10 S/SE 9.3
Oggi h: 10:50 poco_nuvoloso Poco Nuvoloso 17 12 72 1004 10 S/SE 7.4
Oggi h: 10:20 poco_nuvoloso Poco Nuvoloso 16 12 77 1004 10 S/SE 7.4
Oggi h: 09:50 poco_nuvoloso Poco Nuvoloso 16 12 77 1004 10 S 7.4
Oggi h: 09:20 poco_nuvoloso Poco Nuvoloso 15 12 82 1004 10 SO 9.3
Oggi h: 08:50 poco_nuvoloso Poco Nuvoloso 15 12 82 1004 10 SO 9.3
Oggi h: 08:20 poco_nuvoloso Poco Nuvoloso 14 12 87 1004 10 O 7.4
Oggi h: 07:50 nuvoloso Nuvoloso 13 12 93 1005 10 O 7.4
Oggi h: 07:20 nuvoloso Nuvoloso 13 12 93 1005 10 O/SO 11.1
Oggi h: 06:50 molto_nuvoloso Molto Nuvoloso 13 12 93 1005 10 O 7.4
Oggi h: 06:20 molto_nuvoloso Molto Nuvoloso 13 11 87 1005 10 O 7.4
Oggi h: 05:50 coperto_pioggia Pioggia Debole 12 11 93 1005 10 N 5.5
Oggi h: 05:20 molto_nuvoloso Molto Nuvoloso 13 12 93 1005 10 O/SO 9.3
Oggi h: 04:50 nuvoloso Nuvoloso 12 12 100 1005 10 O/SO 11.1
Oggi h: 04:20 poco_nuvoloso Poco Nuvoloso 13 12 93 1005 10 O 9.3
Oggi h: 03:50 nuvoloso Nuvoloso 13 12 93 1005 10 O/NO 9.3
Oggi h: 03:20 nuvoloso Nuvoloso 13 12 93 1006 10 O/NO 9.3
Oggi h: 02:50 coperto_pioggia Pioggia Debole 13 12 93 1006 10 O/NO 9.3
Oggi h: 02:20 coperto_pioggia Pioggia Debole 13 12 93 1006 10 O/SO 9.3
Oggi h: 01:50 coperto_pioggia Pioggia Debole 13 11 87 1006 10 O 7.4
Oggi h: 01:20 coperto_pioggia Pioggia Debole 13 11 87 1007 10 NO 11.1
Oggi h: 00:50 coperto_pioggia Pioggia Debole 13 12 93 1007 10 O 18.5
Oggi h: 00:20 coperto_pioggia Pioggia Debole 15 14 93 1007 10 O 13
Ieri h: 23:50 coperto_pioggia Pioggia Debole 15 14 93 1007 10 O/NO 9.3
Ieri h: 23:20 coperto_pioggia Pioggia Debole 15 14 93 1007 10 NE 13
Ieri h: 22:50 coperto_pioggia Pioggia Debole 15 14 93 1007 8 NE 11.1
Ieri h: 22:20 coperto_pioggia Pioggia Debole 15 14 93 1007 10 NE 9.3
Ieri h: 21:50 molto_nuvoloso Molto Nuvoloso 15 14 93 1007 10 N 3.7
Ieri h: 21:20 nuvoloso_piovaschi Debole Rovescio di Pioggia 15 14 93 1007 10 N 3.7
Ieri h: 20:50 molto_nuvoloso Molto Nuvoloso 15 14 93 1006 10 N/NE 9.3